Tracking 30995 objects as of 5-Jul-2025
HD Live streaming from Space Station
objects crossing your sky now

STARLINK-30585

Track STARLINK-30585 now!
10-day predictions
STARLINK-30585 is classified as:


NORAD ID: 58063
Int'l Code: 2023-158N
Perigee: 565.0 km
Apogee: 567.5 km
Inclination: 43.0 °
Period: 95.8 minutes
Semi major axis: 6937 km
RCS: Unknown
Launch date: October 13, 2023
Source: United States (US)
Launch site: AIR FORCE EASTERN TEST RANGE (AFETR)
Your satellite tracking list
SPHERE-1 EYE
Track 1 satellite(s)




NASA's NSSDC Master Catalog

Two Line Element Set (TLE):
1 58063U 23158N   25186.78194448 -.00001137  00000-0 -69129-4 0  9993
2 58063  43.0043 291.6525 0001806 271.1874  88.8761 15.02533053 96384
Source of the keplerian elements: AFSPC